NORTHEAST SUFFOLK  -  Frost Advisory Frost Advisory        NORTHWEST SUFFOLK  -  Frost Advisory Frost Advisory        SOUTHEAST SUFFOLK  -  Frost Advisory Frost Advisory        SOUTHWEST SUFFOLK  -  Frost Advisory Frost Advisory      

Active alerts

Northwest Suffolk
  Details for Northwest Suffolk Frost Advisory
Southwest Suffolk
  Details for Southwest Suffolk Frost Advisory
Northeast Suffolk
  Details for Northeast Suffolk Frost Advisory
Southeast Suffolk
  Details for Southeast Suffolk Frost Advisory


WXM80 ListenWXM80 Stop

You find our weather info also at:

UK Metoffice

WeatherCloud

Weather Underground

Northeastern Weather Network

AWEKAS

Citizen Weather Observer Program (CWOP)

HAMweather, WeatherForYou, PWS Weather


Weather Underground History page Text

Daily Summary for October 27, 2017 Units:  Both    English   Metric
« Previous Day
Next Day »
Daily Weekly Monthly Yearly Custom
  High: Low: Average:
Temperature: 65.2 °F /  18.4 °C 47.2 °F /  8.4 °C 54.3 °F /  12.4 °C
Dew Point: 47.8 °F /  8.8 °C 39.6 °F /  4.2 °C 43.2 °F /  6.2 °C
Humidity: 87 % 45 % 67 %
Wind Speed: 7.6 mph /  12.2 km/h - 1.8 mph /  2.9 km/h
Wind Gust: 15.0 mph /  24.1 km/h - -
Wind:- - WSW
Pressure: 30.10 in /  1019.2 hPa 29.87 in /  1011.4 hPa -
Precipitation: 0.00 in /  0 mm    
Historical Graphs
 
 
Tabular Data for October 27, 2017
Time Temperature Dew Point Pressure Wind Wind Speed Wind Gust Humidity Rainfall Rate (Hourly)
00:04 51.8 °F /  11 °C 41.6 °F /  5.3 °C 29.87 in /  1011.4 hPa West 4.6 mph /  7.4 km/h 8.1 mph /  13 km/h 68 % 0.00 in /  0 mm
00:09 51.7 °F /  10.9 °C 41.5 °F /  5.3 °C 29.87 in /  1011.4 hPa WNW 1.3 mph /  2.1 km/h 4.6 mph /  7.4 km/h 68 % 0.00 in /  0 mm
00:14 51.7 °F /  10.9 °C 41.5 °F /  5.3 °C 29.87 in /  1011.4 hPa West 2.2 mph /  3.5 km/h 8.1 mph /  13 km/h 68 % 0.00 in /  0 mm
00:19 51.5 °F /  10.8 °C 41.3 °F /  5.2 °C 29.88 in /  1011.7 hPa SW 3.3 mph /  5.3 km/h 3.5 mph /  5.6 km/h 68 % 0.00 in /  0 mm
00:24 51.5 °F /  10.8 °C 40.9 °F /  4.9 °C 29.88 in /  1011.7 hPa WNW 3.6 mph /  5.8 km/h 6.0 mph /  9.7 km/h 67 % 0.00 in /  0 mm
00:29 51.4 °F /  10.8 °C 41.2 °F /  5.1 °C 29.88 in /  1011.7 hPa WSW 3.6 mph /  5.8 km/h 6.0 mph /  9.7 km/h 68 % 0.00 in /  0 mm
00:34 51.3 °F /  10.7 °C 41.1 °F /  5.1 °C 29.88 in /  1011.7 hPa SW 2.7 mph /  4.3 km/h 5.8 mph /  9.3 km/h 68 % 0.00 in /  0 mm
00:39 51.3 °F /  10.7 °C 41.1 °F /  5.1 °C 29.89 in /  1012.1 hPa West 4.6 mph /  7.4 km/h 4.6 mph /  7.4 km/h 68 % 0.00 in /  0 mm
00:44 51.2 °F /  10.7 °C 41.0 °F /  5 °C 29.89 in /  1012.1 hPa SW 5.6 mph /  9 km/h 9.2 mph /  14.8 km/h 68 % 0.00 in /  0 mm
00:49 51.1 °F /  10.6 °C 40.9 °F /  4.9 °C 29.90 in /  1012.4 hPa SW 5.5 mph /  8.9 km/h 8.1 mph /  13 km/h 68 % 0.00 in /  0 mm
00:54 51.1 °F /  10.6 °C 40.9 °F /  4.9 °C 29.90 in /  1012.4 hPa WSW 3.4 mph /  5.5 km/h 6.9 mph /  11.1 km/h 68 % 0.00 in /  0 mm
00:59 51.1 °F /  10.6 °C 40.9 °F /  4.9 °C 29.90 in /  1012.4 hPa SW 1.1 mph /  1.8 km/h 9.2 mph /  14.8 km/h 68 % 0.00 in /  0 mm
01:04 51.1 °F /  10.6 °C 40.9 °F /  4.9 °C 29.90 in /  1012.4 hPa WSW 3.9 mph /  6.3 km/h 12.7 mph /  20.4 km/h 68 % 0.00 in /  0 mm
01:09 51.0 °F /  10.6 °C 40.8 °F /  4.9 °C 29.90 in /  1012.4 hPa SW 2.6 mph /  4.2 km/h 9.2 mph /  14.8 km/h 68 % 0.00 in /  0 mm
01:15 51.0 °F /  10.6 °C 41.2 °F /  5.1 °C 29.90 in /  1012.4 hPa WSW 2.4 mph /  3.9 km/h 7.0 mph /  11.3 km/h 69 % 0.00 in /  0 mm
01:20 51.0 °F /  10.6 °C 40.8 °F /  4.9 °C 29.90 in /  1012.4 hPa WSW 2.8 mph /  4.5 km/h 11.5 mph /  18.5 km/h 68 % 0.00 in /  0 mm
01:25 50.9 °F /  10.5 °C 41.1 °F /  5.1 °C 29.90 in /  1012.4 hPa West 2.7 mph /  4.3 km/h 8.1 mph /  13 km/h 69 % 0.00 in /  0 mm
01:30 50.9 °F /  10.5 °C 41.1 °F /  5.1 °C 29.90 in /  1012.4 hPa WSW 3.9 mph /  6.3 km/h 5.8 mph /  9.3 km/h 69 % 0.00 in /  0 mm
01:35 50.9 °F /  10.5 °C 41.5 °F /  5.3 °C 29.91 in /  1012.8 hPa WSW 2.5 mph /  4 km/h 5.8 mph /  9.3 km/h 70 % 0.00 in /  0 mm
01:40 50.9 °F /  10.5 °C 41.5 °F /  5.3 °C 29.91 in /  1012.8 hPa WNW 5.3 mph /  8.5 km/h 9.2 mph /  14.8 km/h 70 % 0.00 in /  0 mm
01:45 50.8 °F /  10.4 °C 41.4 °F /  5.2 °C 29.91 in /  1012.8 hPa West 4.4 mph /  7.1 km/h 8.1 mph /  13 km/h 70 % 0.00 in /  0 mm
01:50 50.8 °F /  10.4 °C 41.0 °F /  5 °C 29.91 in /  1012.8 hPa WSW 4.5 mph /  7.2 km/h 6.9 mph /  11.1 km/h 69 % 0.00 in /  0 mm
01:55 50.8 °F /  10.4 °C 41.0 °F /  5 °C 29.92 in /  1013.1 hPa West 3.6 mph /  5.8 km/h 6.9 mph /  11.1 km/h 69 % 0.00 in /  0 mm
02:00 50.8 °F /  10.4 °C 40.6 °F /  4.8 °C 29.92 in /  1013.1 hPa WSW 2.1 mph /  3.4 km/h 9.2 mph /  14.8 km/h 68 % 0.00 in /  0 mm
02:05 50.8 °F /  10.4 °C 40.6 °F /  4.8 °C 29.93 in /  1013.4 hPa WSW 2.5 mph /  4 km/h 3.5 mph /  5.6 km/h 68 % 0.00 in /  0 mm
02:10 50.8 °F /  10.4 °C 41.0 °F /  5 °C 29.93 in /  1013.4 hPa SSW 3.8 mph /  6.1 km/h 6.0 mph /  9.7 km/h 69 % 0.00 in /  0 mm
02:15 50.8 °F /  10.4 °C 41.0 °F /  5 °C 29.94 in /  1013.8 hPa West 2.2 mph /  3.5 km/h 2.3 mph /  3.7 km/h 69 % 0.00 in /  0 mm
02:20 50.8 °F /  10.4 °C 41.4 °F /  5.2 °C 29.94 in /  1013.8 hPa SSW 3.5 mph /  5.6 km/h 3.5 mph /  5.6 km/h 70 % 0.00 in /  0 mm
02:25 50.7 °F /  10.4 °C 40.9 °F /  4.9 °C 29.94 in /  1013.8 hPa SW 2.4 mph /  3.9 km/h 3.5 mph /  5.6 km/h 69 % 0.00 in /  0 mm
02:31 50.6 °F /  10.3 °C 40.8 °F /  4.9 °C 29.94 in /  1013.8 hPa SW 1.0 mph /  1.6 km/h 5.0 mph /  8 km/h 69 % 0.00 in /  0 mm
02:36 50.5 °F /  10.3 °C 41.1 °F /  5.1 °C 29.95 in /  1014.1 hPa Calm   9.0 mph /  14.5 km/h 70 % 0.00 in /  0 mm
02:40 50.5 °F /  10.3 °C 41.1 °F /  5.1 °C 29.95 in /  1014.1 hPa WSW 0.2 mph /  0.3 km/h 3.5 mph /  5.6 km/h 70 % 0.00 in /  0 mm
02:46 50.4 °F /  10.2 °C 41.3 °F /  5.2 °C 29.95 in /  1014.1 hPa WSW 1.0 mph /  1.6 km/h 3.0 mph /  4.8 km/h 71 % 0.00 in /  0 mm
02:51 50.1 °F /  10.1 °C 41.1 °F /  5.1 °C 29.96 in /  1014.4 hPa SW 1.0 mph /  1.6 km/h 4.0 mph /  6.4 km/h 71 % 0.00 in /  0 mm
02:55 49.9 °F /  9.9 °C 40.9 °F /  4.9 °C 29.96 in /  1014.4 hPa SW 0.6 mph /  1 km/h 2.3 mph /  3.7 km/h 71 % 0.00 in /  0 mm
03:01 49.7 °F /  9.8 °C 40.7 °F /  4.8 °C 29.96 in /  1014.4 hPa WSW 0.5 mph /  0.8 km/h 2.3 mph /  3.7 km/h 71 % 0.00 in /  0 mm
03:06 49.4 °F /  9.7 °C 40.7 °F /  4.8 °C 29.96 in /  1014.4 hPa SW 0.2 mph /  0.3 km/h 2.3 mph /  3.7 km/h 72 % 0.00 in /  0 mm
03:11 49.2 °F /  9.6 °C 40.6 °F /  4.8 °C 29.96 in /  1014.4 hPa SSW 2.2 mph /  3.5 km/h 5.8 mph /  9.3 km/h 72 % 0.00 in /  0 mm
03:16 48.9 °F /  9.4 °C 40.6 °F /  4.8 °C 29.96 in /  1014.4 hPa SW 2.9 mph /  4.7 km/h 7.0 mph /  11.3 km/h 73 % 0.00 in /  0 mm
03:21 48.7 °F /  9.3 °C 40.4 °F /  4.7 °C 29.96 in /  1014.4 hPa SW 1.2 mph /  1.9 km/h 3.5 mph /  5.6 km/h 73 % 0.00 in /  0 mm
03:26 48.4 °F /  9.1 °C 40.5 °F /  4.7 °C 29.96 in /  1014.4 hPa WSW 2.0 mph /  3.2 km/h 4.6 mph /  7.4 km/h 74 % 0.00 in /  0 mm
03:31 48.2 °F /  9 °C 40.3 °F /  4.6 °C 29.96 in /  1014.4 hPa WSW 0.4 mph /  0.6 km/h 2.0 mph /  3.2 km/h 74 % 0.00 in /  0 mm
03:36 48.0 °F /  8.9 °C 40.5 °F /  4.7 °C 29.97 in /  1014.8 hPa WSW 0.4 mph /  0.6 km/h 4.6 mph /  7.4 km/h 75 % 0.00 in /  0 mm
03:41 47.8 °F /  8.8 °C 40.3 °F /  4.6 °C 29.97 in /  1014.8 hPa WSW 1.4 mph /  2.3 km/h 3.5 mph /  5.6 km/h 75 % 0.00 in /  0 mm
03:46 47.7 °F /  8.7 °C 40.5 °F /  4.7 °C 29.97 in /  1014.8 hPa SW 1.0 mph /  1.6 km/h 4.0 mph /  6.4 km/h 76 % 0.00 in /  0 mm
03:51 47.5 °F /  8.6 °C 40.3 °F /  4.6 °C 29.97 in /  1014.8 hPa SW 2.0 mph /  3.2 km/h 4.6 mph /  7.4 km/h 76 % 0.00 in /  0 mm
03:56 47.4 °F /  8.6 °C 40.6 °F /  4.8 °C 29.97 in /  1014.8 hPa SW 1.8 mph /  2.9 km/h 2.3 mph /  3.7 km/h 77 % 0.00 in /  0 mm
04:01 47.3 °F /  8.5 °C 40.8 °F /  4.9 °C 29.97 in /  1014.8 hPa Calm   3.5 mph /  5.6 km/h 78 % 0.00 in /  0 mm
04:06 47.2 °F /  8.4 °C 40.4 °F /  4.7 °C 29.98 in /  1015.1 hPa WSW 6.0 mph /  9.7 km/h 9.2 mph /  14.8 km/h 77 % 0.00 in /  0 mm
04:11 47.2 °F /  8.4 °C 39.7 °F /  4.3 °C 29.97 in /  1014.8 hPa SW 3.7 mph /  6 km/h 7.0 mph /  11.3 km/h 75 % 0.00 in /  0 mm
04:16 47.5 °F /  8.6 °C 39.6 °F /  4.2 °C 29.98 in /  1015.1 hPa WSW 4.5 mph /  7.2 km/h 11.5 mph /  18.5 km/h 74 % 0.00 in /  0 mm
04:21 47.8 °F /  8.8 °C 40.3 °F /  4.6 °C 29.98 in /  1015.1 hPa SSW 5.8 mph /  9.3 km/h 8.1 mph /  13 km/h 75 % 0.00 in /  0 mm
04:27 48.2 °F /  9 °C 40.6 °F /  4.8 °C 29.98 in /  1015.1 hPa SW 4.8 mph /  7.7 km/h 10.4 mph /  16.7 km/h 75 % 0.00 in /  0 mm
04:32 48.5 °F /  9.2 °C 40.9 °F /  4.9 °C 29.98 in /  1015.1 hPa WSW 3.7 mph /  6 km/h 11.5 mph /  18.5 km/h 75 % 0.00 in /  0 mm
04:37 48.7 °F /  9.3 °C 40.8 °F /  4.9 °C 29.99 in /  1015.5 hPa West 3.2 mph /  5.1 km/h 6.9 mph /  11.1 km/h 74 % 0.00 in /  0 mm
04:42 48.8 °F /  9.3 °C 40.9 °F /  4.9 °C 29.99 in /  1015.5 hPa West 2.9 mph /  4.7 km/h 9.2 mph /  14.8 km/h 74 % 0.00 in /  0 mm
04:52 49.2 °F /  9.6 °C 40.6 °F /  4.8 °C 29.99 in /  1015.5 hPa SW 0.3 mph /  0.5 km/h 2.3 mph /  3.7 km/h 72 % 0.00 in /  0 mm
04:57 49.3 °F /  9.6 °C 41.0 °F /  5 °C 30.00 in /  1015.8 hPa SW 0.8 mph /  1.3 km/h 3.5 mph /  5.6 km/h 73 % 0.00 in /  0 mm
05:02 49.3 °F /  9.6 °C 41.0 °F /  5 °C 30.00 in /  1015.8 hPa SW 0.5 mph /  0.8 km/h 2.3 mph /  3.7 km/h 73 % 0.00 in /  0 mm
05:07 49.2 °F /  9.6 °C 40.9 °F /  4.9 °C 30.00 in /  1015.8 hPa Calm   1.2 mph /  1.9 km/h 73 % 0.00 in /  0 mm
05:12 49.1 °F /  9.5 °C 41.2 °F /  5.1 °C 30.00 in /  1015.8 hPa SW 0.1 mph /  0.2 km/h 1.2 mph /  1.9 km/h 74 % 0.00 in /  0 mm
05:17 48.9 °F /  9.4 °C 41.0 °F /  5 °C 30.00 in /  1015.8 hPa WNW 0.9 mph /  1.4 km/h 3.5 mph /  5.6 km/h 74 % 0.00 in /  0 mm
05:22 48.7 °F /  9.3 °C 40.8 °F /  4.9 °C 30.00 in /  1015.8 hPa WSW 0.2 mph /  0.3 km/h 1.2 mph /  1.9 km/h 74 % 0.00 in /  0 mm
05:27 48.7 °F /  9.3 °C 40.8 °F /  4.9 °C 30.00 in /  1015.8 hPa West 4.5 mph /  7.2 km/h 10.4 mph /  16.7 km/h 74 % 0.00 in /  0 mm
05:32 48.7 °F /  9.3 °C 40.4 °F /  4.7 °C 30.00 in /  1015.8 hPa West 4.8 mph /  7.7 km/h 7.0 mph /  11.3 km/h 73 % 0.00 in /  0 mm
05:37 48.8 °F /  9.3 °C 40.5 °F /  4.7 °C 30.00 in /  1015.8 hPa West 2.5 mph /  4 km/h 7.0 mph /  11.3 km/h 73 % 0.00 in /  0 mm
05:42 49.0 °F /  9.4 °C 40.7 °F /  4.8 °C 30.00 in /  1015.8 hPa West 5.3 mph /  8.5 km/h 6.0 mph /  9.7 km/h 73 % 0.00 in /  0 mm
05:47 49.1 °F /  9.5 °C 40.5 °F /  4.7 °C 30.00 in /  1015.8 hPa WSW 3.3 mph /  5.3 km/h 8.1 mph /  13 km/h 72 % 0.00 in /  0 mm
05:53 49.3 °F /  9.6 °C 40.7 °F /  4.8 °C 30.00 in /  1015.8 hPa WSW 3.8 mph /  6.1 km/h 9.2 mph /  14.8 km/h 72 % 0.00 in /  0 mm
05:58 49.4 °F /  9.7 °C 40.4 °F /  4.7 °C 30.01 in /  1016.1 hPa West 4.7 mph /  7.6 km/h 9.2 mph /  14.8 km/h 71 % 0.00 in /  0 mm
06:03 49.7 °F /  9.8 °C 40.7 °F /  4.8 °C 30.01 in /  1016.1 hPa SW 3.2 mph /  5.1 km/h 8.1 mph /  13 km/h 71 % 0.00 in /  0 mm
06:08 49.8 °F /  9.9 °C 40.4 °F /  4.7 °C 30.02 in /  1016.5 hPa West 7.6 mph /  12.2 km/h 15.0 mph /  24.1 km/h 70 % 0.00 in /  0 mm
06:13 50.0 °F /  10 °C 40.2 °F /  4.6 °C 30.02 in /  1016.5 hPa West 5.0 mph /  8 km/h 7.0 mph /  11.3 km/h 69 % 0.00 in /  0 mm
06:18 50.1 °F /  10.1 °C 40.3 °F /  4.6 °C 30.02 in /  1016.5 hPa SW 6.1 mph /  9.8 km/h 10.4 mph /  16.7 km/h 69 % 0.00 in /  0 mm
06:23 50.2 °F /  10.1 °C 40.4 °F /  4.7 °C 30.02 in /  1016.5 hPa West 4.8 mph /  7.7 km/h 9.2 mph /  14.8 km/h 69 % 0.00 in /  0 mm
06:28 50.3 °F /  10.2 °C 40.5 °F /  4.7 °C 30.01 in /  1016.1 hPa West 5.9 mph /  9.5 km/h 10.4 mph /  16.7 km/h 69 % 0.00 in /  0 mm
06:33 50.3 °F /  10.2 °C 40.5 °F /  4.7 °C 30.02 in /  1016.5 hPa WNW 2.3 mph /  3.7 km/h 5.0 mph /  8 km/h 69 % 0.00 in /  0 mm
06:38 50.4 °F /  10.2 °C 40.6 °F /  4.8 °C 30.02 in /  1016.5 hPa West 2.6 mph /  4.2 km/h 4.6 mph /  7.4 km/h 69 % 0.00 in /  0 mm
06:43 50.4 °F /  10.2 °C 41.0 °F /  5 °C 30.02 in /  1016.5 hPa WSW 3.0 mph /  4.8 km/h 6.9 mph /  11.1 km/h 70 % 0.00 in /  0 mm
06:48 50.4 °F /  10.2 °C 41.0 °F /  5 °C 30.02 in /  1016.5 hPa West 4.0 mph /  6.4 km/h 9.2 mph /  14.8 km/h 70 % 0.00 in /  0 mm
06:58 50.4 °F /  10.2 °C 41.3 °F /  5.2 °C 30.02 in /  1016.5 hPa WSW 4.4 mph /  7.1 km/h 6.9 mph /  11.1 km/h 71 % 0.00 in /  0 mm
07:03 50.4 °F /  10.2 °C 41.3 °F /  5.2 °C 30.02 in /  1016.5 hPa SW 2.0 mph /  3.2 km/h 5.0 mph /  8 km/h 71 % 0.00 in /  0 mm
07:08 50.4 °F /  10.2 °C 41.3 °F /  5.2 °C 30.02 in /  1016.5 hPa West 5.9 mph /  9.5 km/h 10.4 mph /  16.7 km/h 71 % 0.00 in /  0 mm
07:13 50.4 °F /  10.2 °C 41.7 °F /  5.4 °C 30.03 in /  1016.8 hPa West 6.2 mph /  10 km/h 9.2 mph /  14.8 km/h 72 % 0.00 in /  0 mm
07:19 50.4 °F /  10.2 °C 41.7 °F /  5.4 °C 30.03 in /  1016.8 hPa WSW 3.4 mph /  5.5 km/h 8.0 mph /  12.9 km/h 72 % 0.00 in /  0 mm
07:24 50.4 °F /  10.2 °C 41.7 °F /  5.4 °C 30.03 in /  1016.8 hPa WSW 2.7 mph /  4.3 km/h 8.1 mph /  13 km/h 72 % 0.00 in /  0 mm
07:29 50.4 °F /  10.2 °C 42.1 °F /  5.6 °C 30.04 in /  1017.2 hPa West 2.6 mph /  4.2 km/h 6.9 mph /  11.1 km/h 73 % 0.00 in /  0 mm
07:34 50.4 °F /  10.2 °C 42.1 °F /  5.6 °C 30.04 in /  1017.2 hPa WNW 2.9 mph /  4.7 km/h 5.8 mph /  9.3 km/h 73 % 0.00 in /  0 mm
07:39 50.3 °F /  10.2 °C 42.0 °F /  5.6 °C 30.04 in /  1017.2 hPa WSW 2.2 mph /  3.5 km/h 5.0 mph /  8 km/h 73 % 0.00 in /  0 mm
07:44 50.4 °F /  10.2 °C 42.4 °F /  5.8 °C 30.04 in /  1017.2 hPa SSW 4.4 mph /  7.1 km/h 6.9 mph /  11.1 km/h 74 % 0.00 in /  0 mm
07:49 50.4 °F /  10.2 °C 42.4 °F /  5.8 °C 30.04 in /  1017.2 hPa West 4.1 mph /  6.6 km/h 9.0 mph /  14.5 km/h 74 % 0.00 in /  0 mm
07:54 50.4 °F /  10.2 °C 42.4 °F /  5.8 °C 30.05 in /  1017.5 hPa WSW 3.1 mph /  5 km/h 11.0 mph /  17.7 km/h 74 % 0.00 in /  0 mm
07:59 50.5 °F /  10.3 °C 42.5 °F /  5.8 °C 30.05 in /  1017.5 hPa West 4.0 mph /  6.4 km/h 6.9 mph /  11.1 km/h 74 % 0.00 in /  0 mm
08:04 50.5 °F /  10.3 °C 42.5 °F /  5.8 °C 30.05 in /  1017.5 hPa West 2.9 mph /  4.7 km/h 6.0 mph /  9.7 km/h 74 % 0.00 in /  0 mm
08:09 50.6 °F /  10.3 °C 42.6 °F /  5.9 °C 30.06 in /  1017.8 hPa WNW 2.5 mph /  4 km/h 9.0 mph /  14.5 km/h 74 % 0.00 in /  0 mm
08:14 50.7 °F /  10.4 °C 42.7 °F /  5.9 °C 30.06 in /  1017.8 hPa West 0.8 mph /  1.3 km/h 6.9 mph /  11.1 km/h 74 % 0.00 in /  0 mm
08:19 50.8 °F /  10.4 °C 42.5 °F /  5.8 °C 30.06 in /  1017.8 hPa WSW 3.8 mph /  6.1 km/h 10.4 mph /  16.7 km/h 73 % 0.00 in /  0 mm
08:24 50.9 °F /  10.5 °C 42.6 °F /  5.9 °C 30.06 in /  1017.8 hPa WNW 2.8 mph /  4.5 km/h 8.1 mph /  13 km/h 73 % 0.00 in /  0 mm
08:29 51.0 °F /  10.6 °C 42.6 °F /  5.9 °C 30.06 in /  1017.8 hPa West 2.2 mph /  3.5 km/h 10.4 mph /  16.7 km/h 73 % 0.00 in /  0 mm
08:35 51.0 °F /  10.6 °C 42.3 °F /  5.7 °C 30.06 in /  1017.8 hPa West 1.5 mph /  2.4 km/h 8.1 mph /  13 km/h 72 % 0.00 in /  0 mm
08:40 51.2 °F /  10.7 °C 42.5 °F /  5.8 °C 30.07 in /  1018.2 hPa WSW 0.3 mph /  0.5 km/h 4.0 mph /  6.4 km/h 72 % 0.00 in /  0 mm
08:45 51.3 °F /  10.7 °C 42.6 °F /  5.9 °C 30.07 in /  1018.2 hPa WSW 1.1 mph /  1.8 km/h 5.8 mph /  9.3 km/h 72 % 0.00 in /  0 mm
08:50 51.3 °F /  10.7 °C 42.6 °F /  5.9 °C 30.07 in /  1018.2 hPa NNW 2.7 mph /  4.3 km/h 8.1 mph /  13 km/h 72 % 0.00 in /  0 mm
08:55 51.5 °F /  10.8 °C 42.4 °F /  5.8 °C 30.07 in /  1018.2 hPa WSW 1.4 mph /  2.3 km/h 5.8 mph /  9.3 km/h 71 % 0.00 in /  0 mm
09:00 51.6 °F /  10.9 °C 42.9 °F /  6.1 °C 30.07 in /  1018.2 hPa WSW 0.5 mph /  0.8 km/h 2.0 mph /  3.2 km/h 72 % 0.00 in /  0 mm
09:05 51.7 °F /  10.9 °C 43.0 °F /  6.1 °C 30.07 in /  1018.2 hPa Calm   1.2 mph /  1.9 km/h 72 % 0.00 in /  0 mm
09:10 51.8 °F /  11 °C 43.4 °F /  6.3 °C 30.08 in /  1018.5 hPa West 3.4 mph /  5.5 km/h 5.8 mph /  9.3 km/h 73 % 0.00 in /  0 mm
09:15 51.9 °F /  11.1 °C 43.2 °F /  6.2 °C 30.08 in /  1018.5 hPa NW 2.1 mph /  3.4 km/h 4.6 mph /  7.4 km/h 72 % 0.00 in /  0 mm
09:20 52.0 °F /  11.1 °C 43.3 °F /  6.3 °C 30.08 in /  1018.5 hPa West 1.7 mph /  2.7 km/h 3.5 mph /  5.6 km/h 72 % 0.00 in /  0 mm
09:25 52.2 °F /  11.2 °C 43.4 °F /  6.3 °C 30.08 in /  1018.5 hPa SW 2.7 mph /  4.3 km/h 5.8 mph /  9.3 km/h 72 % 0.00 in /  0 mm
09:30 52.5 °F /  11.4 °C 43.4 °F /  6.3 °C 30.08 in /  1018.5 hPa West 2.3 mph /  3.7 km/h 6.9 mph /  11.1 km/h 71 % 0.00 in /  0 mm
09:35 53.0 °F /  11.7 °C 44.2 °F /  6.8 °C 30.08 in /  1018.5 hPa WSW 2.5 mph /  4 km/h 6.9 mph /  11.1 km/h 72 % 0.00 in /  0 mm
09:40 53.5 °F /  11.9 °C 44.3 °F /  6.8 °C 30.09 in /  1018.8 hPa West 3.1 mph /  5 km/h 4.6 mph /  7.4 km/h 71 % 0.00 in /  0 mm
09:45 53.9 °F /  12.2 °C 44.0 °F /  6.7 °C 30.08 in /  1018.5 hPa SW 4.8 mph /  7.7 km/h 6.9 mph /  11.1 km/h 69 % 0.00 in /  0 mm
09:50 54.4 °F /  12.4 °C 43.7 °F /  6.5 °C 30.08 in /  1018.5 hPa WSW 4.0 mph /  6.4 km/h 11.5 mph /  18.5 km/h 67 % 0.00 in /  0 mm
09:55 54.8 °F /  12.7 °C 43.7 °F /  6.5 °C 30.09 in /  1018.8 hPa West 5.1 mph /  8.2 km/h 10.4 mph /  16.7 km/h 66 % 0.00 in /  0 mm
10:01 55.0 °F /  12.8 °C 43.8 °F /  6.6 °C 30.09 in /  1018.8 hPa West 2.5 mph /  4 km/h 5.0 mph /  8 km/h 66 % 0.00 in /  0 mm
10:06 55.2 °F /  12.9 °C 43.6 °F /  6.4 °C 30.08 in /  1018.5 hPa NW 3.0 mph /  4.8 km/h 3.5 mph /  5.6 km/h 65 % 0.00 in /  0 mm
10:11 55.4 °F /  13 °C 44.2 °F /  6.8 °C 30.09 in /  1018.8 hPa SW 1.5 mph /  2.4 km/h 3.5 mph /  5.6 km/h 66 % 0.00 in /  0 mm
10:16 55.6 °F /  13.1 °C 44.0 °F /  6.7 °C 30.09 in /  1018.8 hPa NW 5.1 mph /  8.2 km/h 7.0 mph /  11.3 km/h 65 % 0.00 in /  0 mm
10:21 55.9 °F /  13.3 °C 44.3 °F /  6.8 °C 30.09 in /  1018.8 hPa WNW 3.8 mph /  6.1 km/h 10.4 mph /  16.7 km/h 65 % 0.00 in /  0 mm
10:26 56.3 °F /  13.5 °C 44.7 °F /  7.1 °C 30.09 in /  1018.8 hPa WNW 0.9 mph /  1.4 km/h 5.8 mph /  9.3 km/h 65 % 0.00 in /  0 mm
10:31 56.7 °F /  13.7 °C 45.5 °F /  7.5 °C 30.09 in /  1018.8 hPa WNW 4.8 mph /  7.7 km/h 6.9 mph /  11.1 km/h 66 % 0.00 in /  0 mm
10:36 57.0 °F /  13.9 °C 45.3 °F /  7.4 °C 30.09 in /  1018.8 hPa WSW 6.3 mph /  10.1 km/h 11.5 mph /  18.5 km/h 65 % 0.00 in /  0 mm
10:41 57.4 °F /  14.1 °C 46.1 °F /  7.8 °C 30.09 in /  1018.8 hPa WSW 4.6 mph /  7.4 km/h 9.0 mph /  14.5 km/h 66 % 0.00 in /  0 mm
10:44 57.6 °F /  14.2 °C 45.9 °F /  7.7 °C 30.09 in /  1018.8 hPa NW 5.3 mph /  8.5 km/h 9.2 mph /  14.8 km/h 65 % 0.00 in /  0 mm
10:49 58.0 °F /  14.4 °C 46.7 °F /  8.2 °C 30.08 in /  1018.5 hPa NW 1.5 mph /  2.4 km/h 9.2 mph /  14.8 km/h 66 % 0.00 in /  0 mm
10:54 58.4 °F /  14.7 °C 45.8 °F /  7.7 °C 30.09 in /  1018.8 hPa West 1.5 mph /  2.4 km/h 4.6 mph /  7.4 km/h 63 % 0.00 in /  0 mm
11:04 59.3 °F /  15.2 °C 46.7 °F /  8.2 °C 30.08 in /  1018.5 hPa WNW 1.0 mph /  1.6 km/h 5.8 mph /  9.3 km/h 63 % 0.00 in /  0 mm
11:09 59.8 °F /  15.4 °C 46.3 °F /  7.9 °C 30.08 in /  1018.5 hPa WSW 4.2 mph /  6.8 km/h 8.1 mph /  13 km/h 61 % 0.00 in /  0 mm
11:14 60.1 °F /  15.6 °C 45.7 °F /  7.6 °C 30.08 in /  1018.5 hPa West 3.8 mph /  6.1 km/h 8.1 mph /  13 km/h 59 % 0.00 in /  0 mm
11:19 60.4 °F /  15.8 °C 45.5 °F /  7.5 °C 30.09 in /  1018.8 hPa West 4.1 mph /  6.6 km/h 5.8 mph /  9.3 km/h 58 % 0.00 in /  0 mm
11:24 60.9 °F /  16.1 °C 46.5 °F /  8.1 °C 30.09 in /  1018.8 hPa WSW 2.4 mph /  3.9 km/h 5.0 mph /  8 km/h 59 % 0.00 in /  0 mm
11:29 61.4 °F /  16.3 °C 47.8 °F /  8.8 °C 30.09 in /  1018.8 hPa NW 1.1 mph /  1.8 km/h 6.0 mph /  9.7 km/h 61 % 0.00 in /  0 mm
11:34 61.8 °F /  16.6 °C 46.9 °F /  8.3 °C 30.08 in /  1018.5 hPa NW 1.7 mph /  2.7 km/h 7.0 mph /  11.3 km/h 58 % 0.00 in /  0 mm
11:39 62.2 °F /  16.8 °C 46.3 °F /  7.9 °C 30.08 in /  1018.5 hPa WNW 1.2 mph /  1.9 km/h 3.5 mph /  5.6 km/h 56 % 0.00 in /  0 mm
11:45 62.6 °F /  17 °C 46.7 °F /  8.2 °C 30.08 in /  1018.5 hPa SSW 2.6 mph /  4.2 km/h 6.0 mph /  9.7 km/h 56 % 0.00 in /  0 mm
11:50 63.0 °F /  17.2 °C 47.5 °F /  8.6 °C 30.08 in /  1018.5 hPa WSW 0.9 mph /  1.4 km/h 5.8 mph /  9.3 km/h 57 % 0.00 in /  0 mm
11:55 63.2 °F /  17.3 °C 45.8 °F /  7.7 °C 30.08 in /  1018.5 hPa SSW 4.6 mph /  7.4 km/h 5.8 mph /  9.3 km/h 53 % 0.00 in /  0 mm
11:57 63.4 °F /  17.4 °C 46.9 °F /  8.3 °C 30.08 in /  1018.5 hPa WSW 2.0 mph /  3.2 km/h 5.8 mph /  9.3 km/h 55 % 0.00 in /  0 mm
12:02 63.6 °F /  17.6 °C 46.6 °F /  8.1 °C 30.08 in /  1018.5 hPa SW 0.6 mph /  1 km/h 3.5 mph /  5.6 km/h 54 % 0.00 in /  0 mm
12:07 63.7 °F /  17.6 °C 46.2 °F /  7.9 °C 30.08 in /  1018.5 hPa SW 4.0 mph /  6.4 km/h 5.8 mph /  9.3 km/h 53 % 0.00 in /  0 mm
12:12 63.8 °F /  17.7 °C 45.3 °F /  7.4 °C 30.07 in /  1018.2 hPa WNW 2.2 mph /  3.5 km/h 3.5 mph /  5.6 km/h 51 % 0.00 in /  0 mm
12:17 63.8 °F /  17.7 °C 46.3 °F /  7.9 °C 30.07 in /  1018.2 hPa West 1.3 mph /  2.1 km/h 5.0 mph /  8 km/h 53 % 0.00 in /  0 mm
12:23 63.7 °F /  17.6 °C 45.2 °F /  7.3 °C 30.07 in /  1018.2 hPa WNW 2.1 mph /  3.4 km/h 2.1 mph /  3.4 km/h 51 % 0.00 in /  0 mm
12:28 63.5 °F /  17.5 °C 46.1 °F /  7.8 °C 30.07 in /  1018.2 hPa WNW 0.3 mph /  0.5 km/h 2.3 mph /  3.7 km/h 53 % 0.00 in /  0 mm
12:33 63.2 °F /  17.3 °C 44.8 °F /  7.1 °C 30.07 in /  1018.2 hPa NW 1.6 mph /  2.6 km/h 3.5 mph /  5.6 km/h 51 % 0.00 in /  0 mm
12:38 62.9 °F /  17.2 °C 44.0 °F /  6.7 °C 30.07 in /  1018.2 hPa West 1.9 mph /  3.1 km/h 6.9 mph /  11.1 km/h 50 % 0.00 in /  0 mm
12:43 62.7 °F /  17.1 °C 44.8 °F /  7.1 °C 30.07 in /  1018.2 hPa West 2.1 mph /  3.4 km/h 3.5 mph /  5.6 km/h 52 % 0.00 in /  0 mm
12:48 62.6 °F /  17 °C 44.7 °F /  7.1 °C 30.07 in /  1018.2 hPa West 1.9 mph /  3.1 km/h 3.5 mph /  5.6 km/h 52 % 0.00 in /  0 mm
12:53 62.7 °F /  17.1 °C 43.3 °F /  6.3 °C 30.07 in /  1018.2 hPa WNW 4.3 mph /  6.9 km/h 6.9 mph /  11.1 km/h 49 % 0.00 in /  0 mm
12:58 62.8 °F /  17.1 °C 43.9 °F /  6.6 °C 30.07 in /  1018.2 hPa West 2.6 mph /  4.2 km/h 4.6 mph /  7.4 km/h 50 % 0.00 in /  0 mm
13:03 62.9 °F /  17.2 °C 43.4 °F /  6.3 °C 30.07 in /  1018.2 hPa West 4.0 mph /  6.4 km/h 6.9 mph /  11.1 km/h 49 % 0.00 in /  0 mm
13:08 62.9 °F /  17.2 °C 45.0 °F /  7.2 °C 30.06 in /  1017.8 hPa Calm   1.0 mph /  1.6 km/h 52 % 0.00 in /  0 mm
13:13 62.8 °F /  17.1 °C 44.4 °F /  6.9 °C 30.06 in /  1017.8 hPa West 2.1 mph /  3.4 km/h 3.5 mph /  5.6 km/h 51 % 0.00 in /  0 mm
13:18 62.6 °F /  17 °C 43.7 °F /  6.5 °C 30.07 in /  1018.2 hPa NW 1.9 mph /  3.1 km/h 5.8 mph /  9.3 km/h 50 % 0.00 in /  0 mm
13:23 62.3 °F /  16.8 °C 43.9 °F /  6.6 °C 30.06 in /  1017.8 hPa West 3.6 mph /  5.8 km/h 6.0 mph /  9.7 km/h 51 % 0.00 in /  0 mm
13:28 62.2 °F /  16.8 °C 43.8 °F /  6.6 °C 30.06 in /  1017.8 hPa NNE 1.5 mph /  2.4 km/h 5.0 mph /  8 km/h 51 % 0.00 in /  0 mm
13:33 62.2 °F /  16.8 °C 45.3 °F /  7.4 °C 30.06 in /  1017.8 hPa SW 0.9 mph /  1.4 km/h 4.6 mph /  7.4 km/h 54 % 0.00 in /  0 mm
13:38 62.3 °F /  16.8 °C 43.9 °F /  6.6 °C 30.06 in /  1017.8 hPa West 2.7 mph /  4.3 km/h 5.8 mph /  9.3 km/h 51 % 0.00 in /  0 mm
13:44 62.5 °F /  16.9 °C 44.1 °F /  6.7 °C 30.06 in /  1017.8 hPa NW 3.1 mph /  5 km/h 5.8 mph /  9.3 km/h 51 % 0.00 in /  0 mm
13:49 62.9 °F /  17.2 °C 42.4 °F /  5.8 °C 30.06 in /  1017.8 hPa WNW 4.7 mph /  7.6 km/h 6.9 mph /  11.1 km/h 47 % 0.00 in /  0 mm
13:54 63.2 °F /  17.3 °C 43.2 °F /  6.2 °C 30.06 in /  1017.8 hPa NW 2.1 mph /  3.4 km/h 9.2 mph /  14.8 km/h 48 % 0.00 in /  0 mm
13:59 63.6 °F /  17.6 °C 43.0 °F /  6.1 °C 30.06 in /  1017.8 hPa NNW 1.8 mph /  2.9 km/h 6.9 mph /  11.1 km/h 47 % 0.00 in /  0 mm
14:04 63.9 °F /  17.7 °C 42.1 °F /  5.6 °C 30.06 in /  1017.8 hPa WNW 2.8 mph /  4.5 km/h 5.8 mph /  9.3 km/h 45 % 0.00 in /  0 mm
14:09 64.2 °F /  17.9 °C 43.0 °F /  6.1 °C 30.06 in /  1017.8 hPa West 4.1 mph /  6.6 km/h 5.8 mph /  9.3 km/h 46 % 0.00 in /  0 mm
14:14 64.4 °F /  18 °C 44.3 °F /  6.8 °C 30.05 in /  1017.5 hPa West 1.9 mph /  3.1 km/h 4.6 mph /  7.4 km/h 48 % 0.00 in /  0 mm
14:19 64.7 °F /  18.2 °C 43.4 °F /  6.3 °C 30.05 in /  1017.5 hPa WNW 4.4 mph /  7.1 km/h 5.8 mph /  9.3 km/h 46 % 0.00 in /  0 mm
14:24 64.8 °F /  18.2 °C 42.9 °F /  6.1 °C 30.05 in /  1017.5 hPa WNW 2.7 mph /  4.3 km/h 6.0 mph /  9.7 km/h 45 % 0.00 in /  0 mm
14:29 64.9 °F /  18.3 °C 43.0 °F /  6.1 °C 30.05 in /  1017.5 hPa North 2.0 mph /  3.2 km/h 3.5 mph /  5.6 km/h 45 % 0.00 in /  0 mm
14:34 65.0 °F /  18.3 °C 44.3 °F /  6.8 °C 30.05 in /  1017.5 hPa West 3.0 mph /  4.8 km/h 4.6 mph /  7.4 km/h 47 % 0.00 in /  0 mm
14:44 65.1 °F /  18.4 °C 44.4 °F /  6.9 °C 30.05 in /  1017.5 hPa West 0.6 mph /  1 km/h 1.2 mph /  1.9 km/h 47 % 0.00 in /  0 mm
14:49 65.1 °F /  18.4 °C 44.4 °F /  6.9 °C 30.05 in /  1017.5 hPa SW 5.2 mph /  8.4 km/h 9.0 mph /  14.5 km/h 47 % 0.00 in /  0 mm
14:54 65.1 °F /  18.4 °C 43.2 °F /  6.2 °C 30.05 in /  1017.5 hPa SW 4.1 mph /  6.6 km/h 8.1 mph /  13 km/h 45 % 0.00 in /  0 mm
14:59 65.2 °F /  18.4 °C 43.9 °F /  6.6 °C 30.05 in /  1017.5 hPa SW 1.7 mph /  2.7 km/h 5.8 mph /  9.3 km/h 46 % 0.00 in /  0 mm
15:05 65.1 °F /  18.4 °C 44.4 °F /  6.9 °C 30.05 in /  1017.5 hPa SW 3.3 mph /  5.3 km/h 8.1 mph /  13 km/h 47 % 0.00 in /  0 mm
15:10 65.1 °F /  18.4 °C 44.4 °F /  6.9 °C 30.05 in /  1017.5 hPa WSW 4.0 mph /  6.4 km/h 6.0 mph /  9.7 km/h 47 % 0.00 in /  0 mm
15:15 64.9 °F /  18.3 °C 43.0 °F /  6.1 °C 30.05 in /  1017.5 hPa WSW 0.7 mph /  1.1 km/h 5.8 mph /  9.3 km/h 45 % 0.00 in /  0 mm
15:20 64.7 °F /  18.2 °C 43.4 °F /  6.3 °C 30.05 in /  1017.5 hPa SSW 1.5 mph /  2.4 km/h 3.5 mph /  5.6 km/h 46 % 0.00 in /  0 mm
15:25 64.5 °F /  18.1 °C 43.3 °F /  6.3 °C 30.05 in /  1017.5 hPa WSW 2.2 mph /  3.5 km/h 3.5 mph /  5.6 km/h 46 % 0.00 in /  0 mm
15:30 64.3 °F /  17.9 °C 43.1 °F /  6.2 °C 30.05 in /  1017.5 hPa SSW 0.2 mph /  0.3 km/h 1.2 mph /  1.9 km/h 46 % 0.00 in /  0 mm
15:35 64.0 °F /  17.8 °C 42.8 °F /  6 °C 30.05 in /  1017.5 hPa SW 5.3 mph /  8.5 km/h 6.9 mph /  11.1 km/h 46 % 0.00 in /  0 mm
15:40 63.7 °F /  17.6 °C 42.5 °F /  5.8 °C 30.05 in /  1017.5 hPa ESE 0.3 mph /  0.5 km/h 2.3 mph /  3.7 km/h 46 % 0.00 in /  0 mm
15:45 63.4 °F /  17.4 °C 42.8 °F /  6 °C 30.05 in /  1017.5 hPa SSW 3.5 mph /  5.6 km/h 4.6 mph /  7.4 km/h 47 % 0.00 in /  0 mm
15:50 63.1 °F /  17.3 °C 42.5 °F /  5.8 °C 30.05 in /  1017.5 hPa SSW 1.9 mph /  3.1 km/h 4.6 mph /  7.4 km/h 47 % 0.00 in /  0 mm
15:55 62.9 °F /  17.2 °C 42.9 °F /  6.1 °C 30.05 in /  1017.5 hPa South 0.3 mph /  0.5 km/h 2.0 mph /  3.2 km/h 48 % 0.00 in /  0 mm
16:00 62.7 °F /  17.1 °C 42.2 °F /  5.7 °C 30.05 in /  1017.5 hPa WNW 3.0 mph /  4.8 km/h 4.0 mph /  6.4 km/h 47 % 0.00 in /  0 mm
16:05 62.5 °F /  16.9 °C 43.1 °F /  6.2 °C 30.05 in /  1017.5 hPa WSW 2.5 mph /  4 km/h 4.6 mph /  7.4 km/h 49 % 0.00 in /  0 mm
16:10 62.3 °F /  16.8 °C 43.4 °F /  6.3 °C 30.05 in /  1017.5 hPa Calm     50 % 0.00 in /  0 mm
16:15 62.1 °F /  16.7 °C 43.7 °F /  6.5 °C 30.05 in /  1017.5 hPa SW 3.0 mph /  4.8 km/h 5.8 mph /  9.3 km/h 51 % 0.00 in /  0 mm
16:20 61.9 °F /  16.6 °C 43.0 °F /  6.1 °C 30.05 in /  1017.5 hPa SW 0.4 mph /  0.6 km/h 1.2 mph /  1.9 km/h 50 % 0.00 in /  0 mm
16:25 61.8 °F /  16.6 °C 43.5 °F /  6.4 °C 30.05 in /  1017.5 hPa SW 1.7 mph /  2.7 km/h 3.5 mph /  5.6 km/h 51 % 0.00 in /  0 mm
16:31 61.6 °F /  16.4 °C 43.8 °F /  6.6 °C 30.05 in /  1017.5 hPa Calm   5.0 mph /  8 km/h 52 % 0.00 in /  0 mm
16:36 61.3 °F /  16.3 °C 43.5 °F /  6.4 °C 30.06 in /  1017.8 hPa Calm   5.0 mph /  8 km/h 52 % 0.00 in /  0 mm
16:38 61.3 °F /  16.3 °C 44.0 °F /  6.7 °C 30.06 in /  1017.8 hPa SSW 0.5 mph /  0.8 km/h 3.5 mph /  5.6 km/h 53 % 0.00 in /  0 mm
16:43 61.1 °F /  16.2 °C 43.8 °F /  6.6 °C 30.06 in /  1017.8 hPa Calm   2.3 mph /  3.7 km/h 53 % 0.00 in /  0 mm
16:48 60.9 °F /  16.1 °C 43.6 °F /  6.4 °C 30.06 in /  1017.8 hPa SSW 0.8 mph /  1.3 km/h 2.0 mph /  3.2 km/h 53 % 0.00 in /  0 mm
16:53 60.7 °F /  15.9 °C 43.9 °F /  6.6 °C 30.06 in /  1017.8 hPa Calm     54 % 0.00 in /  0 mm
16:58 60.4 °F /  15.8 °C 43.7 °F /  6.5 °C 30.06 in /  1017.8 hPa SSW 0.2 mph /  0.3 km/h 2.0 mph /  3.2 km/h 54 % 0.00 in /  0 mm
17:03 60.3 °F /  15.7 °C 44.1 °F /  6.7 °C 30.06 in /  1017.8 hPa Calm   1.2 mph /  1.9 km/h 55 % 0.00 in /  0 mm
17:08 60.1 °F /  15.6 °C 43.9 °F /  6.6 °C 30.06 in /  1017.8 hPa Calm   1.2 mph /  1.9 km/h 55 % 0.00 in /  0 mm
17:13 59.9 °F /  15.5 °C 44.2 °F /  6.8 °C 30.06 in /  1017.8 hPa SSW 1.0 mph /  1.6 km/h 2.3 mph /  3.7 km/h 56 % 0.00 in /  0 mm
17:19 59.6 °F /  15.3 °C 43.9 °F /  6.6 °C 30.06 in /  1017.8 hPa Calm   3.5 mph /  5.6 km/h 56 % 0.00 in /  0 mm
17:24 59.4 °F /  15.2 °C 43.7 °F /  6.5 °C 30.06 in /  1017.8 hPa Calm   1.2 mph /  1.9 km/h 56 % 0.00 in /  0 mm
17:29 59.1 °F /  15.1 °C 43.9 °F /  6.6 °C 30.07 in /  1018.2 hPa SSW 0.1 mph /  0.2 km/h 2.3 mph /  3.7 km/h 57 % 0.00 in /  0 mm
17:34 58.8 °F /  14.9 °C 43.6 °F /  6.4 °C 30.07 in /  1018.2 hPa Calm   1.2 mph /  1.9 km/h 57 % 0.00 in /  0 mm
17:39 58.6 °F /  14.8 °C 43.9 °F /  6.6 °C 30.06 in /  1017.8 hPa SSW 0.1 mph /  0.2 km/h 1.2 mph /  1.9 km/h 58 % 0.00 in /  0 mm
17:44 58.3 °F /  14.6 °C 43.6 °F /  6.4 °C 30.07 in /  1018.2 hPa Calm     58 % 0.00 in /  0 mm
17:49 58.0 °F /  14.4 °C 43.3 °F /  6.3 °C 30.07 in /  1018.2 hPa Calm     58 % 0.00 in /  0 mm
17:54 57.7 °F /  14.3 °C 43.5 °F /  6.4 °C 30.07 in /  1018.2 hPa Calm     59 % 0.00 in /  0 mm
17:59 57.5 °F /  14.2 °C 43.7 °F /  6.5 °C 30.07 in /  1018.2 hPa Calm     60 % 0.00 in /  0 mm
18:04 57.1 °F /  13.9 °C 43.8 °F /  6.6 °C 30.07 in /  1018.2 hPa Calm     61 % 0.00 in /  0 mm
18:09 56.8 °F /  13.8 °C 43.9 °F /  6.6 °C 30.07 in /  1018.2 hPa Calm     62 % 0.00 in /  0 mm
18:14 56.5 °F /  13.6 °C 44.0 °F /  6.7 °C 30.07 in /  1018.2 hPa Calm   1.0 mph /  1.6 km/h 63 % 0.00 in /  0 mm
18:19 56.2 °F /  13.4 °C 43.8 °F /  6.6 °C 30.07 in /  1018.2 hPa Calm     63 % 0.00 in /  0 mm
18:24 55.8 °F /  13.2 °C 44.6 °F /  7 °C 30.08 in /  1018.5 hPa Calm     66 % 0.00 in /  0 mm
18:29 55.3 °F /  12.9 °C 44.5 °F /  6.9 °C 30.07 in /  1018.2 hPa Calm     67 % 0.00 in /  0 mm
18:34 55.0 °F /  12.8 °C 44.2 °F /  6.8 °C 30.08 in /  1018.5 hPa Calm     67 % 0.00 in /  0 mm
18:40 54.8 °F /  12.7 °C 44.0 °F /  6.7 °C 30.08 in /  1018.5 hPa Calm     67 % 0.00 in /  0 mm
18:45 54.5 °F /  12.5 °C 44.2 °F /  6.8 °C 30.08 in /  1018.5 hPa Calm   1.2 mph /  1.9 km/h 68 % 0.00 in /  0 mm
18:50 54.2 °F /  12.3 °C 43.9 °F /  6.6 °C 30.08 in /  1018.5 hPa Calm     68 % 0.00 in /  0 mm
18:55 53.9 °F /  12.2 °C 43.6 °F /  6.4 °C 30.09 in /  1018.8 hPa Calm     68 % 0.00 in /  0 mm
19:00 53.7 °F /  12.1 °C 43.4 °F /  6.3 °C 30.09 in /  1018.8 hPa Calm     68 % 0.00 in /  0 mm
19:05 53.5 °F /  11.9 °C 44.0 °F /  6.7 °C 30.09 in /  1018.8 hPa Calm   1.2 mph /  1.9 km/h 70 % 0.00 in /  0 mm
19:10 53.2 °F /  11.8 °C 43.7 °F /  6.5 °C 30.09 in /  1018.8 hPa Calm     70 % 0.00 in /  0 mm
19:15 53.0 °F /  11.7 °C 43.5 °F /  6.4 °C 30.09 in /  1018.8 hPa Calm     70 % 0.00 in /  0 mm
19:20 52.8 °F /  11.6 °C 43.7 °F /  6.5 °C 30.09 in /  1018.8 hPa Calm     71 % 0.00 in /  0 mm
19:25 52.6 °F /  11.4 °C 44.5 °F /  6.9 °C 30.09 in /  1018.8 hPa Calm     74 % 0.00 in /  0 mm
19:30 52.4 °F /  11.3 °C 44.4 °F /  6.9 °C 30.09 in /  1018.8 hPa Calm     74 % 0.00 in /  0 mm
19:35 52.2 °F /  11.2 °C 44.2 °F /  6.8 °C 30.09 in /  1018.8 hPa Calm     74 % 0.00 in /  0 mm
19:40 52.0 °F /  11.1 °C 44.0 °F /  6.7 °C 30.09 in /  1018.8 hPa Calm     74 % 0.00 in /  0 mm
19:45 51.8 °F /  11 °C 43.8 °F /  6.6 °C 30.09 in /  1018.8 hPa Calm     74 % 0.00 in /  0 mm
19:47 51.8 °F /  11 °C 43.8 °F /  6.6 °C 30.09 in /  1018.8 hPa Calm     74 % 0.00 in /  0 mm
19:52 51.5 °F /  10.8 °C 44.2 °F /  6.8 °C 30.09 in /  1018.8 hPa Calm     76 % 0.00 in /  0 mm
19:57 51.4 °F /  10.8 °C 44.1 °F /  6.7 °C 30.09 in /  1018.8 hPa Calm     76 % 0.00 in /  0 mm
20:02 51.2 °F /  10.7 °C 43.9 °F /  6.6 °C 30.09 in /  1018.8 hPa Calm     76 % 0.00 in /  0 mm
20:07 51.0 °F /  10.6 °C 44.0 °F /  6.7 °C 30.09 in /  1018.8 hPa Calm     77 % 0.00 in /  0 mm
20:12 50.8 °F /  10.4 °C 43.8 °F /  6.6 °C 30.09 in /  1018.8 hPa Calm     77 % 0.00 in /  0 mm
20:17 50.6 °F /  10.3 °C 44.3 °F /  6.8 °C 30.08 in /  1018.5 hPa Calm     79 % 0.00 in /  0 mm
20:22 50.5 °F /  10.3 °C 44.2 °F /  6.8 °C 30.09 in /  1018.8 hPa Calm     79 % 0.00 in /  0 mm
20:27 50.3 °F /  10.2 °C 44.4 °F /  6.9 °C 30.09 in /  1018.8 hPa Calm     80 % 0.00 in /  0 mm
20:32 50.3 °F /  10.2 °C 44.7 °F /  7.1 °C 30.09 in /  1018.8 hPa Calm   1.2 mph /  1.9 km/h 81 % 0.00 in /  0 mm
20:37 50.2 °F /  10.1 °C 44.6 °F /  7 °C 30.10 in /  1019.2 hPa Calm     81 % 0.00 in /  0 mm
20:42 50.1 °F /  10.1 °C 44.5 °F /  6.9 °C 30.09 in /  1018.8 hPa Calm     81 % 0.00 in /  0 mm
20:47 50.1 °F /  10.1 °C 44.8 °F /  7.1 °C 30.09 in /  1018.8 hPa Calm     82 % 0.00 in /  0 mm
20:52 50.0 °F /  10 °C 44.7 °F /  7.1 °C 30.09 in /  1018.8 hPa Calm     82 % 0.00 in /  0 mm
20:57 50.0 °F /  10 °C 44.7 °F /  7.1 °C 30.09 in /  1018.8 hPa Calm     82 % 0.00 in /  0 mm
21:03 49.9 °F /  9.9 °C 44.6 °F /  7 °C 30.09 in /  1018.8 hPa Calm     82 % 0.00 in /  0 mm
21:08 49.9 °F /  9.9 °C 44.6 °F /  7 °C 30.09 in /  1018.8 hPa Calm     82 % 0.00 in /  0 mm
21:09 49.9 °F /  9.9 °C 44.6 °F /  7 °C 30.09 in /  1018.8 hPa Calm     82 % 0.00 in /  0 mm
21:14 49.8 °F /  9.9 °C 44.5 °F /  6.9 °C 30.09 in /  1018.8 hPa Calm     82 % 0.00 in /  0 mm
21:19 49.8 °F /  9.9 °C 44.5 °F /  6.9 °C 30.09 in /  1018.8 hPa Calm     82 % 0.00 in /  0 mm
21:24 49.8 °F /  9.9 °C 44.8 °F /  7.1 °C 30.09 in /  1018.8 hPa Calm     83 % 0.00 in /  0 mm
21:29 49.7 °F /  9.8 °C 44.7 °F /  7.1 °C 30.09 in /  1018.8 hPa Calm     83 % 0.00 in /  0 mm
21:34 49.7 °F /  9.8 °C 45.1 °F /  7.3 °C 30.08 in /  1018.5 hPa Calm     84 % 0.00 in /  0 mm
21:39 49.7 °F /  9.8 °C 45.4 °F /  7.4 °C 30.08 in /  1018.5 hPa Calm     85 % 0.00 in /  0 mm
21:44 49.7 °F /  9.8 °C 45.7 °F /  7.6 °C 30.08 in /  1018.5 hPa Calm     86 % 0.00 in /  0 mm
21:49 49.7 °F /  9.8 °C 45.7 °F /  7.6 °C 30.09 in /  1018.8 hPa Calm     86 % 0.00 in /  0 mm
21:50 49.8 °F /  9.9 °C 45.8 °F /  7.7 °C 30.09 in /  1018.8 hPa Calm     86 % 0.00 in /  0 mm
21:56 49.8 °F /  9.9 °C 45.8 °F /  7.7 °C 30.08 in /  1018.5 hPa Calm   1.2 mph /  1.9 km/h 86 % 0.00 in /  0 mm
22:01 49.8 °F /  9.9 °C 45.8 °F /  7.7 °C 30.09 in /  1018.8 hPa Calm     86 % 0.00 in /  0 mm
22:06 49.8 °F /  9.9 °C 45.8 °F /  7.7 °C 30.08 in /  1018.5 hPa Calm     86 % 0.00 in /  0 mm
22:11 49.9 °F /  9.9 °C 46.2 °F /  7.9 °C 30.08 in /  1018.5 hPa Calm     87 % 0.00 in /  0 mm
22:16 49.9 °F /  9.9 °C 45.9 °F /  7.7 °C 30.08 in /  1018.5 hPa Calm     86 % 0.00 in /  0 mm
22:21 49.9 °F /  9.9 °C 45.9 °F /  7.7 °C 30.08 in /  1018.5 hPa Calm     86 % 0.00 in /  0 mm
22:26 49.8 °F /  9.9 °C 45.8 °F /  7.7 °C 30.08 in /  1018.5 hPa Calm     86 % 0.00 in /  0 mm
22:31 49.7 °F /  9.8 °C 45.7 °F /  7.6 °C 30.08 in /  1018.5 hPa Calm     86 % 0.00 in /  0 mm
22:36 49.7 °F /  9.8 °C 45.7 °F /  7.6 °C 30.09 in /  1018.8 hPa Calm     86 % 0.00 in /  0 mm
22:41 49.6 °F /  9.8 °C 45.6 °F /  7.6 °C 30.09 in /  1018.8 hPa Calm     86 % 0.00 in /  0 mm
22:46 49.5 °F /  9.7 °C 45.5 °F /  7.5 °C 30.08 in /  1018.5 hPa Calm     86 % 0.00 in /  0 mm
22:51 49.5 °F /  9.7 °C 45.5 °F /  7.5 °C 30.08 in /  1018.5 hPa Calm     86 % 0.00 in /  0 mm
22:56 49.4 °F /  9.7 °C 45.4 °F /  7.4 °C 30.08 in /  1018.5 hPa Calm     86 % 0.00 in /  0 mm
23:01 49.3 °F /  9.6 °C 45.6 °F /  7.6 °C 30.08 in /  1018.5 hPa Calm     87 % 0.00 in /  0 mm
23:12 49.1 °F /  9.5 °C 45.4 °F /  7.4 °C 30.08 in /  1018.5 hPa Calm     87 % 0.00 in /  0 mm
23:17 49.1 °F /  9.5 °C 45.4 °F /  7.4 °C 30.08 in /  1018.5 hPa Calm     87 % 0.00 in /  0 mm
23:22 49.0 °F /  9.4 °C 45.3 °F /  7.4 °C 30.07 in /  1018.2 hPa Calm     87 % 0.00 in /  0 mm
23:26 48.9 °F /  9.4 °C 45.2 °F /  7.3 °C 30.08 in /  1018.5 hPa Calm     87 % 0.00 in /  0 mm
23:33 48.8 °F /  9.3 °C 45.1 °F /  7.3 °C 30.08 in /  1018.5 hPa Calm     87 % 0.00 in /  0 mm
23:38 48.7 °F /  9.3 °C 45.0 °F /  7.2 °C 30.07 in /  1018.2 hPa Calm     87 % 0.00 in /  0 mm
23:43 48.6 °F /  9.2 °C 44.9 °F /  7.2 °C 30.07 in /  1018.2 hPa Calm     87 % 0.00 in /  0 mm
23:48 48.6 °F /  9.2 °C 44.9 °F /  7.2 °C 30.07 in /  1018.2 hPa Calm     87 % 0.00 in /  0 mm
23:53 48.5 °F /  9.2 °C 44.8 °F /  7.1 °C 30.07 in /  1018.2 hPa Calm     87 % 0.00 in /  0 mm
23:58 48.3 °F /  9.1 °C 44.6 °F /  7 °C 30.08 in /  1018.5 hPa Calm     87 % 0.00 in /  0 mm
Crab Meadow Weather
Compliments of Weather Underground - 3 mb

Script developed by  Jim McMurry - jmcmurry@mwt.net Adapted for the template by  Wim van der Kuil - Leuven-Template.eu

Weather Terms: Warning - A warning is issued when a hazardous weather or hydrologic event is occurring, imminent or likely. A warning means weather conditions pose a threat to life or property. People in the path of the storm need to take protective action.